Weather History for Jackson, WY

Change the Weather History Date:

Sunday, February 24, 2013

  Actual Average Record
Temperature  
Mean Temperature 12 °F -  
Max Temperature 24 °F 34 °F 47 °F (1963)
Min Temperature -4 °F 5 °F -27 °F (2003)
Degree Days  
Heating Degree Days 52    
Moisture  
Dew Point 5 °F    
Average Humidity 75    
Maximum Humidity 92    
Minimum Humidity 49    
Precipitation  
Precipitation 0.00 in - - ()
Sea Level Pressure  
Sea Level Pressure 30.01 in    
Wind  
Wind Speed 9 mph (North)    
Max Wind Speed 16 mph    
Max Gust Speed 21 mph    
Visibility 10 miles    
Events      
Averages and records for this station are not official NWS values.
T = Trace of Precipitation, MM = Missing Value Source: NWS Daily Summary

Daily Weather History Graph

Daily Weather History Graph

Search for Another Location

Airport:

Trip Planner

Search our weather history database for the weather conditions in past years. The results will help you decide how hot, cold, wet, or windy it might be!

Date:

Astronomy

Feb. 24, 2013 Rise Set
Actual Time 7:07 AM MST 6:05 PM MST
Civil Twilight 6:38 AM MST 6:34 PM MST
Nautical Twilight 6:05 AM MST 7:07 PM MST
Astronomical Twilight 5:31 AM MST 7:41 PM MST
Moon 5:20 PM MST (2/24) 6:06 AM MST (2/24)
Length of Visible Light 11h 56m
Length of Day
10h 58m
Waxing Gibbous, 99% of the Moon is Illuminated
Feb 24
Waxing Gibbous
Feb 25
Full
Mar 4
Last Quarter
Mar 11
New
Mar 19
First Quarter

Hourly Weather History & Observations

Time (MST) Temp. Windchill Dew Point Humidity Pressure Visibility Wind Dir Wind Speed Gust Speed Precip Events Conditions
12:15 AM 15.8 °F 6.1 °F 10.4 °F 79% 29.85 in 10.0 mi NNW 6.9 mph - N/A   Mostly Cloudy
12:36 AM 12.2 °F 0.7 °F 8.6 °F 85% 29.86 in 10.0 mi North 8.1 mph - N/A   Overcast
12:56 AM 14.0 °F -0.2 °F 8.6 °F 79% 29.87 in 9.0 mi North 12.7 mph 20.7 mph N/A   Overcast
1:15 AM 14.0 °F 2.9 °F 8.6 °F 79% 29.87 in 10.0 mi NNW 8.1 mph - N/A   Overcast
1:55 AM 14.0 °F 1.2 °F 8.6 °F 79% 29.88 in 10.0 mi North 10.4 mph - N/A   Scattered Clouds
2:15 AM 15.8 °F 2.1 °F 8.6 °F 73% 29.89 in 10.0 mi North 12.7 mph - N/A   Partly Cloudy
2:35 AM 14.0 °F 0.5 °F 8.6 °F 79% 29.89 in 10.0 mi North 11.5 mph - N/A   Scattered Clouds
2:55 AM 15.8 °F 1.4 °F 8.6 °F 73% 29.89 in 10.0 mi NNE 13.8 mph - N/A   Partly Cloudy
3:15 AM 12.2 °F 0.7 °F 6.8 °F 79% 29.90 in 10.0 mi NNW 8.1 mph - N/A   Clear
3:35 AM 14.0 °F -0.8 °F 8.6 °F 79% 29.90 in 10.0 mi North 13.8 mph - N/A   Clear
3:55 AM 12.2 °F -3.7 °F 6.8 °F 79% 29.91 in 10.0 mi North 15.0 mph - N/A   Clear
4:15 AM 12.2 °F -4.3 °F 6.8 °F 79% 29.91 in 10.0 mi North 16.1 mph - N/A   Clear
4:35 AM 12.2 °F -3.1 °F 6.8 °F 79% 29.92 in 10.0 mi North 13.8 mph - N/A   Clear
5:15 AM 10.4 °F -6.6 °F 5.0 °F 79% 29.94 in 10.0 mi North 16.1 mph - N/A   Clear
5:35 AM 8.6 °F -7.0 °F 3.2 °F 79% 29.95 in 10.0 mi North 12.7 mph - N/A   Clear
5:55 AM 8.6 °F -6.3 °F 3.2 °F 79% 29.97 in 10.0 mi NNW 11.5 mph - N/A   Clear
6:15 AM 6.8 °F -7.8 °F 3.2 °F 85% 29.97 in 10.0 mi North 10.4 mph - N/A   Clear
6:35 AM 6.8 °F -8.6 °F 1.4 °F 79% 29.98 in 10.0 mi North 11.5 mph - N/A   Clear
6:52 AM 6.8 °F -8.6 °F 1.4 °F 79% 29.98 in 10.0 mi NNW 11.5 mph - N/A   Clear
6:55 AM 6.8 °F -8.6 °F 1.4 °F 79% 29.98 in 10.0 mi North 11.5 mph - N/A   Clear
7:52 AM 5.0 °F -9.1 °F 1.4 °F 85% 30.02 in 10.0 mi NNW 9.2 mph - N/A   Clear
8:51 AM 8.6 °F - 1.4 °F 73% 30.05 in 10.0 mi Calm Calm - N/A   Clear
9:55 AM 10.4 °F 2.2 °F 3.2 °F 73% 30.05 in 10.0 mi SSW 4.6 mph - N/A   Clear
10:51 AM 17.6 °F 10.7 °F 8.6 °F 68% 30.06 in 10.0 mi NNW 4.6 mph - N/A   Clear
12:51 PM 21.2 °F 13.6 °F 10.4 °F 63% 30.06 in 10.0 mi SE 5.8 mph - N/A   Clear
1:52 PM 24.8 °F 17.9 °F 12.2 °F 59% 30.04 in 10.0 mi South 5.8 mph - N/A   Clear
2:55 PM 24.8 °F 17.9 °F 12.2 °F 59% 30.05 in 10.0 mi South 5.8 mph - N/A   Clear
3:53 PM 24.8 °F 16.9 °F 12.2 °F 59% 30.05 in 10.0 mi SE 6.9 mph - N/A   Clear
4:57 PM 24.8 °F 19.1 °F 10.4 °F 54% 30.07 in 10.0 mi SW 4.6 mph - N/A   Clear
5:51 PM 21.2 °F 9.5 °F 6.8 °F 54% 30.08 in 10.0 mi SW 11.5 mph 16.1 mph N/A   Clear
6:51 PM 19.4 °F 9.5 °F 3.2 °F 49% 30.09 in 10.0 mi SW 8.1 mph - N/A   Clear
7:55 PM 17.6 °F - 6.8 °F 63% 30.11 in 10.0 mi Calm Calm - N/A   Clear
8:52 PM 8.6 °F 0.1 °F 3.2 °F 79% 30.12 in 10.0 mi North 4.6 mph - N/A   Clear
8:55 PM 8.6 °F 2.0 °F 3.2 °F 79% 30.12 in 10.0 mi NE 3.5 mph - N/A   Clear
9:15 PM 6.8 °F -0.1 °F 1.4 °F 79% 30.11 in 10.0 mi North 3.5 mph - N/A   Clear
9:35 PM 6.8 °F -4.8 °F 1.4 °F 79% 30.12 in 10.0 mi North 6.9 mph - N/A   Clear
9:55 PM 10.4 °F -0.4 °F 3.2 °F 73% 30.12 in 10.0 mi NNE 6.9 mph - N/A   Clear
10:15 PM 10.4 °F 4.0 °F 1.4 °F 67% 30.12 in 10.0 mi NNE 3.5 mph - N/A   Clear
10:35 PM 1.4 °F -12.5 °F -0.4 °F 92% 30.13 in 10.0 mi North 8.1 mph - N/A   Clear
10:55 PM 1.4 °F -14.5 °F -0.4 °F 92% 30.13 in 10.0 mi North 10.4 mph - N/A   Clear
11:15 PM 1.4 °F -13.5 °F -0.4 °F 92% 30.13 in 10.0 mi NNE 9.2 mph - N/A   Clear
11:55 PM -4.0 °F -21.2 °F -5.8 °F 92% 30.13 in 10.0 mi North 10.4 mph - N/A   Clear